Regional Weather Roundup
Issued by NWS Portland, ME

Current Version | Previous Version | Text Only | Print | Product List | Glossary On
Versions: 1 2 3 4 5 6 7 8 9 10 11 12 13 14 15 16 17 18 19 20 21 22 23 24 25 26 27 28 29 30 31 32 33 34 35 36 37 38 39 40 41 42 43 44 45 46 47 48 49 50
000
ASUS41 KGYX 231410
RWRGYX
WEATHER ROUNDUP FOR MAINE AND NEW HAMPSHIRE
NATIONAL WEATHER SERVICE GRAY ME
1000 AM EDT WED APR 23 2014

MEZ002-005-006-010-012-015-018-020-021-024-026-027-029-231500-
MAINE

CITY           SKY/WX    TMP DP  RH WIND       PRES   REMARKS
PORTLAND       PTSUNNY   56  48  74 NW8       29.44R
SANFORD        PTSUNNY   55 N/A N/A W12G22    29.42F
BAR HARBOR     CLOUDY    48  48 100 CALM      29.42S
WISCASSET      MOSUNNY   56  48  74 CALM      29.44S
ROCKLAND       PTSUNNY   52  48  87 CALM      29.42F
FRYEBURG       CLOUDY    53  41  63 NW9       29.45R
LEWISTONAUBURN CLOUDY    54  43  66 NW15      29.44S
AUGUSTA        MOSUNNY   53  46  77 NW9       29.44R
WATERVILLE     MOSUNNY   54  46  76 NW7       29.40S
BANGOR         CLOUDY    49  46  90 W6        29.43S
GREENVILLE       N/A     41  38  89 NW7       29.40R
MILLINOCKET    CLOUDY    47  45  93 CALM      29.42S
HOULTON        CLOUDY    46  44  93 S5        29.40F
PRESQUE ISLE   CLOUDY    45  41  87 S6        29.42S
FRENCHVILLE    CLOUDY    36  36 100 NE8       29.41R FOG
CARIBOU        CLOUDY    44  43  96 SE6       29.40S FOG
$$

NHZ002-005-008-009-011-012-014-231500-
NEW HAMPSHIRE

CITY           SKY/WX    TMP DP  RH WIND       PRES   REMARKS
PORTSMOUTH     CLOUDY    58  48  69 NW14G22   29.43R
ROCHESTER      CLOUDY    53  45  74 NW17      29.42F
NASHUA         PTSUNNY   53  45  74 NW12      29.46S
MANCHESTER     CLOUDY    53  45  74 NW10      29.44F
CONCORD        CLOUDY    51  44  77 N12       29.46F
LACONIA        CLOUDY    48  39  71 NW14      29.47F
PLYMOUTH         N/A     49  40  72 NW13G20   29.49S
BERLIN         CLOUDY    43  38  82 NW8       29.48R
WHITEFIELD     CLOUDY    42  39  89 NW12      29.51R
JAFFREY        PTSUNNY   50  42  74 VRB5G23   29.45F
LEBANON        CLOUDY    48  38  68 N14G21    29.51S
MT WASHINGTON  FOG       25  25 100 NW39        N/A  VSB 0   WCI   6
$$

VTZ005-007-008-231500-
VERMONT

CITY           SKY/WX    TMP DP  RH WIND       PRES   REMARKS
ST JOHNSBURY     N/A     43  37  79 MISG      29.52R
MONTPELIER     CLOUDY    40  37  89 NW10      29.58R
BURLINGTON     CLOUDY    45  37  73 NW15G24   29.60S
$$

MAZ007-012-024-CTZ003-RIZ002-NYZ038-NYZ072-231500-
SOUTHERN NEW ENGLAND AND NY

CITY           SKY/WX    TMP DP  RH WIND       PRES   REMARKS
BOSTON         LGT RAIN  53  48  83 NW7       29.45F
WORCESTER      LGT RAIN  45  43  93 W8        29.48R FOG
NANTUCKET      PTSUNNY   55  48  77 N9        29.42F
PROVIDENCE     TSTM      50  46  86 W10       29.47S FOG
HARTFORD       CLOUDY    47  40  76 NW6       29.51S
ALBANY         LGT RAIN  44  39  82 W12       29.59R
NEW YORK CITY  PTSUNNY   51  34  52 NW24G30   29.58S
$$

ANZ081-ANZ082-ANZ150-NHZ014-MEZ023>029-231500-
COASTAL MARINE OBSERVATIONS

STATION/POSITION TIME  TEMP    WIND        PRES    WAVE
                       AIR SEA DIR/SP/G            HT/PER
                 (UTC) (F)     (DEG/KT/KT) (MB)    (FT/S)
MOUNT DESERT ROC 1400   44                  996.1F
MATINICUS ROCK   1400   42     240/  5/  5  996.3F
PORTLAND WX BUOY 1400   44 43  310/  4/  4  996.5F   3/ 5
WELLS            1400   51 42  360/  3/  7  995.3F
ISLE OF SHOALS   1400   54     320/ 19/ 20  995.7R
JEFFREYS LEDGE   1400      43                N/A     3/ 8
CASHES LEDGE BUO 1400   44 42  310/  4/  6  996.0F
$$

.............KEY..............
   WCI - WIND CHILL
   TC  - TEMPERATURE IN CELSIUS
   VSB - VISIBILITY IN MILES
   HX  - HEAT INDEX
   FAIR- INDICATES FEW OR NO CLOUDS BELOW 12,000 FT, WITH NO
         SIGNIFICANT WEATHER AND/OR OBSTRUCTIONS TO VISIBILITY.





USA.gov is the U.S. government's official web portal to all federal, state and local government web resources and services.